When you browse on this site, cookies collect data to enhance your experience and personalize the content and advertising you see.
Visit our Privacy Policy to learn more. By continuing to use the site, you agree to this use of cookies and data.
  • In Romania
  • List of Countries
  • For 7 days
  • Water Temperature
  • Satellite Maps
  • Weather Map
  • Weather Widgets
  • user-avatar
    Login

    Hourly Weather Saurimo

    Today, 22 March, Friday

    Time Temperature Precipitation Wind Pressure Humidity
    00:00 +23°C° 0.5 mm 1 mps 669 mmHg 81%
    01:00 +22°C° 0.5 mm 1 mps 669 mmHg 86%
    02:00 +20°C° 0.7 mm 0 mps 669 mmHg 88%
    03:00 +19°C° 0.7 mm 0 mps 669 mmHg 90%
    04:00 +19°C° 0.7 mm 0 mps 669 mmHg 92%
    05:00 +20°C° 0.1 mm 0 mps 669 mmHg 91%
    06:00 +20°C° 0.1 mm 0 mps 670 mmHg 90%
    07:00 +23°C° 0.1 mm 1 mps 670 mmHg 89%
    08:00 +26°C° 0 mm 1 mps 671 mmHg 78%
    09:00 +29°C° 0 mm 1 mps 672 mmHg 66%
    10:00 +32°C° 0 mm 1 mps 672 mmHg 55%
    11:00 +33°C° 0 mm 1 mps 672 mmHg 49%
    12:00 +33°C° 0 mm 1 mps 671 mmHg 44%
    13:00 +35°C° 0 mm 2 mps 671 mmHg 39%
    14:00 +34°C° 0 mm 2 mps 670 mmHg 43%
    15:00 +33°C° 0 mm 1 mps 670 mmHg 46%
    16:00 +32°C° 0 mm 1 mps 669 mmHg 50%
    17:00 +30°C° 0 mm 1 mps 669 mmHg 54%
    18:00 +28°C° 0 mm 1 mps 669 mmHg 58%
    19:00 +24°C° 0 mm 0 mps 669 mmHg 62%
    20:00 +24°C° 0 mm 0 mps 669 mmHg 63%
    21:00 +26°C° 0 mm 1 mps 670 mmHg 63%
    22:00 +26°C° 0 mm 1 mps 670 mmHg 63%
    23:00 +25°C° 0 mm 1 mps 670 mmHg 66%

    Tomorrow, 23 March, Saturday

    Time Temperature Precipitation Wind Pressure Humidity
    00:00 +24°C° 0 mm 1 mps 669 mmHg 70%
    01:00 +23°C° 0 mm 1 mps 668 mmHg 73%
    02:00 +22°C° 0 mm 1 mps 668 mmHg 74%
    03:00 +22°C° 0 mm 1 mps 668 mmHg 75%
    04:00 +21°C° 0 mm 1 mps 668 mmHg 76%
    05:00 +22°C° 0 mm 1 mps 669 mmHg 75%
    06:00 +23°C° 0 mm 1 mps 669 mmHg 75%
    07:00 +24°C° 0 mm 1 mps 670 mmHg 74%
    08:00 +26°C° 0 mm 1 mps 671 mmHg 67%
    09:00 +29°C° 0 mm 2 mps 671 mmHg 59%
    10:00 +31°C° 0 mm 2 mps 672 mmHg 51%
    11:00 +32°C° 0 mm 2 mps 671 mmHg 47%
    12:00 +34°C° 0 mm 3 mps 671 mmHg 43%
    13:00 +35°C° 0 mm 3 mps 670 mmHg 39%
    14:00 +34°C° 0 mm 3 mps 670 mmHg 42%
    15:00 +34°C° 0 mm 2 mps 669 mmHg 44%
    16:00 +34°C° 0 mm 2 mps 669 mmHg 46%
    17:00 +31°C° 0 mm 2 mps 669 mmHg 52%
    18:00 +28°C° 0 mm 1 mps 668 mmHg 57%
    19:00 +26°C° 0 mm 1 mps 668 mmHg 62%
    20:00 +25°C° 0 mm 1 mps 668 mmHg 64%
    21:00 +24°C° 0 mm 1 mps 668 mmHg 67%
    22:00 +24°C° 0 mm 1 mps 668 mmHg 69%
    23:00 +23°C° 0 mm 1 mps 668 mmHg 70%

    Day after tomorrow, 24 March, Sunday

    Time Temperature Precipitation Wind Pressure Humidity
    00:00 +23°C° 0 mm 1 mps 668 mmHg 71%
    01:00 +22°C° 0 mm 1 mps 668 mmHg 72%
    02:00 +22°C° 0 mm 1 mps 668 mmHg 73%
    03:00 +22°C° 0 mm 1 mps 668 mmHg 73%
    04:00 +22°C° 0 mm 1 mps 668 mmHg 74%
    05:00 +20°C° 0.3 mm 0 mps 669 mmHg 77%
    06:00 +20°C° 0.3 mm 0 mps 669 mmHg 81%
    07:00 +20°C° 0.3 mm 0 mps 670 mmHg 84%
    08:00 +24°C° 0.4 mm 1 mps 670 mmHg 79%
    09:00 +26°C° 0.4 mm 1 mps 671 mmHg 74%
    10:00 +28°C° 0.4 mm 1 mps 671 mmHg 70%
    11:00 +29°C° 0.1 mm 2 mps 671 mmHg 62%
    12:00 +31°C° 0.1 mm 2 mps 670 mmHg 53%
    13:00 +32°C° 0.1 mm 2 mps 670 mmHg 45%
    14:00 +32°C° 0 mm 2 mps 669 mmHg 49%
    15:00 +31°C° 0 mm 2 mps 669 mmHg 52%
    16:00 +30°C° 0 mm 2 mps 669 mmHg 55%
    17:00 +28°C° 0.1 mm 2 mps 669 mmHg 65%
    18:00 +26°C° 0.1 mm 2 mps 669 mmHg 75%
    19:00 +24°C° 0.1 mm 2 mps 669 mmHg 85%
    20:00 +23°C° 0.1 mm 2 mps 669 mmHg 88%
    21:00 +22°C° 0.1 mm 1 mps 669 mmHg 91%
    22:00 +22°C° 0.1 mm 1 mps 669 mmHg 95%
    23:00 +21°C° 0 mm 1 mps 669 mmHg 95%

    25 March, Monday

    Time Temperature Precipitation Wind Pressure Humidity
    00:00 +21°C° 0 mm 1 mps 669 mmHg 95%
    01:00 +21°C° 0 mm 1 mps 668 mmHg 95%
    02:00 +21°C° 0.5 mm 1 mps 668 mmHg 95%
    03:00 +20°C° 0.5 mm 1 mps 668 mmHg 96%
    04:00 +20°C° 0.5 mm 1 mps 668 mmHg 96%
    05:00 +21°C° 1.7 mm 1 mps 669 mmHg 96%
    06:00 +19°C° 1.7 mm 0 mps 669 mmHg 95%
    07:00 +20°C° 1.7 mm 0 mps 670 mmHg 95%
    08:00 +24°C° 0.9 mm 1 mps 671 mmHg 88%
    09:00 +26°C° 0.9 mm 1 mps 671 mmHg 80%
    10:00 +28°C° 0.9 mm 1 mps 671 mmHg 73%
    11:00 +28°C° 1.1 mm 1 mps 671 mmHg 70%
    12:00 +29°C° 1.1 mm 1 mps 670 mmHg 66%
    13:00 +30°C° 1.1 mm 1 mps 670 mmHg 62%
    14:00 +28°C° 1.5 mm 1 mps 670 mmHg 72%
    15:00 +26°C° 1.5 mm 1 mps 669 mmHg 82%
    16:00 +24°C° 1.5 mm 1 mps 669 mmHg 91%
    17:00 +23°C° 0.2 mm 1 mps 669 mmHg 93%
    18:00 +22°C° 0.2 mm 1 mps 670 mmHg 94%
    19:00 +22°C° 0.2 mm 1 mps 670 mmHg 95%
    20:00 +21°C° 0 mm 1 mps 670 mmHg 96%
    21:00 +21°C° 0 mm 1 mps 670 mmHg 97%
    22:00 +20°C° 0 mm 1 mps 670 mmHg 98%
    23:00 +20°C° 0 mm 1 mps 670 mmHg 98%

    26 March, Tuesday

    Time Temperature Precipitation Wind Pressure Humidity
    00:00 +20°C° 0 mm 1 mps 669 mmHg 98%
    01:00 +18°C° 0 mm 0 mps 669 mmHg 98%
    02:00 +19°C° 0 mm 1 mps 669 mmHg 98%
    03:00 +19°C° 0 mm 1 mps 669 mmHg 97%
    04:00 +19°C° 0 mm 1 mps 668 mmHg 97%
    05:00 +20°C° 0 mm 1 mps 669 mmHg 95%
    06:00 +20°C° 0 mm 1 mps 670 mmHg 93%
    07:00 +21°C° 0 mm 1 mps 670 mmHg 92%
    08:00 +23°C° 0 mm 1 mps 671 mmHg 84%
    09:00 +25°C° 0 mm 1 mps 671 mmHg 76%
    10:00 +27°C° 0 mm 1 mps 672 mmHg 68%
    11:00 +28°C° 1.6 mm 1 mps 671 mmHg 66%
    12:00 +29°C° 1.6 mm 1 mps 671 mmHg 65%
    13:00 +30°C° 1.6 mm 1 mps 670 mmHg 64%
    14:00 +30°C° 0.6 mm 1 mps 670 mmHg 62%
    15:00 +30°C° 0.6 mm 1 mps 670 mmHg 61%
    16:00 +29°C° 0.6 mm 1 mps 670 mmHg 59%
    17:00 +27°C° 0 mm 1 mps 670 mmHg 65%
    18:00 +25°C° 0 mm 1 mps 670 mmHg 71%
    19:00 +23°C° 0 mm 1 mps 670 mmHg 77%
    20:00 +23°C° 0.3 mm 1 mps 670 mmHg 81%
    21:00 +20°C° 0.3 mm 0 mps 670 mmHg 84%
    22:00 +19°C° 0.3 mm 0 mps 670 mmHg 88%
    23:00 +19°C° 0.1 mm 0 mps 670 mmHg 89%

    27 March, Wednesday

    Time Temperature Precipitation Wind Pressure Humidity
    00:00 +19°C° 0.1 mm 0 mps 670 mmHg 90%
    01:00 +20°C° 0.1 mm 1 mps 669 mmHg 91%
    02:00 +20°C° 0 mm 1 mps 669 mmHg 92%
    03:00 +20°C° 0 mm 1 mps 669 mmHg 93%
    04:00 +20°C° 0 mm 1 mps 669 mmHg 93%
    05:00 +21°C° 0 mm 1 mps 670 mmHg 92%
    06:00 +21°C° 0 mm 1 mps 671 mmHg 90%
    07:00 +22°C° 0 mm 1 mps 671 mmHg 88%
    08:00 +25°C° 0 mm 1 mps 672 mmHg 78%
    09:00 +28°C° 0 mm 1 mps 672 mmHg 67%
    10:00 +31°C° 0 mm 1 mps 673 mmHg 56%
    11:00 +31°C° 0 mm 1 mps 672 mmHg 55%
    12:00 +31°C° 0 mm 1 mps 672 mmHg 54%
    13:00 +31°C° 0 mm 2 mps 671 mmHg 52%
    14:00 +31°C° 0 mm 1 mps 671 mmHg 55%
    15:00 +30°C° 0 mm 1 mps 671 mmHg 57%
    16:00 +30°C° 0 mm 1 mps 671 mmHg 59%
    17:00 +28°C° 0.7 mm 1 mps 671 mmHg 70%
    18:00 +25°C° 0.7 mm 2 mps 671 mmHg 80%
    19:00 +23°C° 0.7 mm 2 mps 671 mmHg 90%
    20:00 +23°C° 0 mm 2 mps 671 mmHg 89%
    21:00 +23°C° 0 mm 1 mps 671 mmHg 88%
    22:00 +23°C° 0 mm 1 mps 671 mmHg 87%
    23:00 +22°C° 0 mm 1 mps 671 mmHg 88%
    Show more